KD8DWO Weather Reports


time (UTC)temp
C
wind
direction
speed
KPH
gust
KPH
rain 1hr
cm
rain 24hr
cm
rain mn
cm
humidity
%
barometer
mb
20260502231006 8 244 0.0 4.8 0.00 0.00 0.00 41 1016.7
20260502230008 9 254 1.6 16.1 0.00 0.00 0.00 39 1016.8
20260502225005 9 258 3.2 11.3 0.00 0.00 0.00 40 1017.0
20260502224011 9 227 4.8 11.3 0.00 0.00 0.00 40 1016.9
20260502222006 9 224 9.7 11.3 0.00 0.00 0.00 40 1017.0
20260502221007 8 25 0.0 8.0 0.00 0.00 0.00 42 1017.2
20260502220010 8 246 3.2 9.7 0.00 0.00 0.00 42 1017.0
20260502215007 9 282 4.8 11.3 0.00 0.00 0.00 39 1017.1
20260502213031 9 307 4.8 9.7 0.00 0.00 0.00 40 1017.0
20260502212005 9 308 3.2 11.3 0.00 0.00 0.00 42 1017.1
20260502211006 9 11 3.2 14.5 0.00 0.05 0.00 40 1016.9
20260502205005 9 30 4.8 11.3 0.00 0.13 0.00 40 1017.0
20260502204007 9 36 1.6 16.1 0.00 0.13 0.00 42 1017.1
20260502203006 9 9 3.2 11.3 0.00 0.13 0.00 42 1017.0
20260502202005 9 313 0.0 11.3 0.00 0.13 0.00 40 1017.2
20260502201006 8 351 0.0 8.0 0.00 0.13 0.00 42 1017.4
20260502200006 8 303 3.2 9.7 0.00 0.13 0.00 43 1017.5
20260502195006 8 269 0.0 0.0 0.00 0.13 0.00 42 1017.5
20260502194005 8 269 0.0 0.0 0.00 0.13 0.00 43 1017.6
20260502193005 8 269 0.0 0.0 0.00 0.13 0.00 43 1017.6
20260502192006 8 271 0.0 0.0 0.00 0.13 0.00 43 1017.8
20260502191005 8 260 0.0 0.0 0.00 0.13 0.00 44 1017.9
20260502184006 8 240 1.6 11.3 0.00 0.13 0.00 47 1018.0
20260502183005 8 280 1.6 11.3 0.00 0.13 0.00 47 1018.2
20260502182005 8 294 4.8 11.3 0.00 0.13 0.00 47 1018.2
20260502181005 8 0 1.6 8.0 0.00 0.13 0.00 47 1018.1
20260502164005 7 326 1.6 8.0 0.00 0.13 0.00 52 1018.7
20260502163005 7 357 1.6 9.7 0.00 0.13 0.00 52 1018.9
20260502161005 7 263 3.2 9.7 0.00 0.13 0.00 52 1018.9
20260502151005 7 5 3.2 11.3 0.00 0.13 0.00 56 1018.5
20260502123004 3 29 0.0 0.0 0.00 0.33 0.00 75 1018.3
20260502121005 3 329 0.0 0.0 0.00 0.33 0.00 78 1018.1
20260502115004 2 355 0.0 0.0 0.00 0.33 0.00 80 1018.0
20260502114004 2 0 0.0 0.0 0.00 0.33 0.00 81 1018.0
20260502112004 1 325 0.0 0.0 0.00 0.33 0.00 81 1017.8
20260502111004 1 325 0.0 0.0 0.00 0.33 0.00 81 1017.7
20260502110005 1 325 0.0 0.0 0.00 0.33 0.00 81 1017.7
20260502105005 1 325 0.0 0.0 0.00 0.36 0.00 80 1017.5
20260502104004 2 325 0.0 0.0 0.00 0.36 0.00 80 1017.5
20260502103004 2 325 0.0 0.0 0.00 0.36 0.00 79 1017.4
20260502102004 2 325 0.0 0.0 0.00 0.38 0.00 80 1017.2
20260502101004 2 325 0.0 0.0 0.00 0.46 0.00 78 1017.5
20260502091004 2 322 0.0 0.0 0.00 0.58 0.00 78 1017.0
20260502071005 3 282 0.0 0.0 0.00 0.79 0.00 75 1016.7
20260502070004 3 282 0.0 0.0 0.00 0.79 0.00 75 1016.6
20260502065004 3 282 0.0 0.0 0.00 0.79 0.00 75 1016.8
20260502064004 3 282 0.0 0.0 0.00 0.79 0.00 75 1017.0
20260502062004 3 282 0.0 0.0 0.00 0.84 0.00 74 1016.8
20260502061006 3 283 0.0 0.0 0.00 0.86 0.00 76 1016.9
20260502060006 3 263 0.0 0.0 0.00 0.86 0.00 76 1017.0
20260502055007 3 263 0.0 0.0 0.00 0.86 0.00 76 1017.0
20260502054006 4 263 0.0 0.0 0.00 0.86 0.00 76 1017.1
20260502053006 4 263 0.0 0.0 0.00 0.86 0.00 77 1017.1
20260502052007 5 264 0.0 0.0 0.00 0.86 0.00 78 1017.2
20260502051007 5 287 0.0 0.0 0.00 0.86 0.00 79 1017.2